When you browse on this site, cookies collect data to enhance your experience and personalize the content and advertising you see.
Visit our Privacy Policy to learn more. By continuing to use the site, you agree to this use of cookies and data.
  • In United Kingdom
  • List of Countries
  • For 7 days
  • Water Temperature
  • Satellite Maps
  • Weather Map
  • Weather Widgets
  • user-avatar
    Login

    Hourly Weather Pet'kiv

    Today, 25 June, Tuesday

    Time Temperature Precipitation Wind Pressure Humidity
    00:00 +20°C° 0 mm 4 mps 753 mmHg 93%
    01:00 +19°C° 0 mm 4 mps 753 mmHg 94%
    02:00 +18°C° 0 mm 3 mps 753 mmHg 94%
    03:00 +18°C° 0 mm 4 mps 753 mmHg 93%
    04:00 +18°C° 0 mm 4 mps 754 mmHg 92%
    05:00 +18°C° 0 mm 4 mps 754 mmHg 91%
    06:00 +19°C° 0 mm 5 mps 754 mmHg 83%
    07:00 +21°C° 0 mm 5 mps 754 mmHg 76%
    08:00 +22°C° 0 mm 5 mps 755 mmHg 70%
    09:00 +23°C° 0 mm 5 mps 755 mmHg 65%
    10:00 +25°C° 0 mm 5 mps 755 mmHg 60%
    11:00 +26°C° 0 mm 5 mps 755 mmHg 56%
    12:00 +26°C° 0 mm 5 mps 756 mmHg 56%
    13:00 +26°C° 0 mm 5 mps 756 mmHg 56%
    14:00 +27°C° 0 mm 5 mps 756 mmHg 56%
    15:00 +26°C° 0 mm 4 mps 756 mmHg 58%
    16:00 +26°C° 0 mm 4 mps 756 mmHg 60%
    17:00 +26°C° 0 mm 4 mps 755 mmHg 63%
    18:00 +24°C° 0 mm 3 mps 756 mmHg 68%
    19:00 +22°C° 0 mm 3 mps 756 mmHg 73%
    20:00 +20°C° 0 mm 2 mps 757 mmHg 78%
    21:00 +19°C° 0 mm 2 mps 756 mmHg 80%
    22:00 +18°C° 0 mm 2 mps 756 mmHg 82%
    23:00 +19°C° 0 mm 1 mps 756 mmHg 84%

    Tomorrow, 26 June, Wednesday

    Time Temperature Precipitation Wind Pressure Humidity
    00:00 +18°C° 0 mm 1 mps 756 mmHg 85%
    01:00 +18°C° 0 mm 1 mps 757 mmHg 87%
    02:00 +16°C° 0 mm 1 mps 757 mmHg 88%
    03:00 +18°C° 0 mm 1 mps 757 mmHg 87%
    04:00 +16°C° 0 mm 0 mps 756 mmHg 87%
    05:00 +16°C° 0 mm 0 mps 756 mmHg 87%
    06:00 +18°C° 0 mm 0 mps 756 mmHg 81%
    07:00 +19°C° 0 mm 0 mps 757 mmHg 76%
    08:00 +21°C° 0 mm 0 mps 757 mmHg 71%
    09:00 +24°C° 0 mm 1 mps 756 mmHg 66%
    10:00 +25°C° 0 mm 1 mps 756 mmHg 62%
    11:00 +26°C° 0 mm 1 mps 756 mmHg 58%
    12:00 +26°C° 0.1 mm 1 mps 756 mmHg 58%
    13:00 +26°C° 0.1 mm 2 mps 755 mmHg 59%
    14:00 +26°C° 0.1 mm 2 mps 755 mmHg 60%
    15:00 +26°C° 0.1 mm 2 mps 755 mmHg 62%
    16:00 +26°C° 0.1 mm 2 mps 754 mmHg 65%
    17:00 +26°C° 0.1 mm 2 mps 753 mmHg 67%
    18:00 +24°C° 0 mm 2 mps 753 mmHg 71%
    19:00 +23°C° 0 mm 2 mps 753 mmHg 75%
    20:00 +20°C° 0 mm 2 mps 752 mmHg 79%
    21:00 +20°C° 0 mm 2 mps 752 mmHg 80%
    22:00 +19°C° 0 mm 3 mps 752 mmHg 81%
    23:00 +19°C° 0 mm 3 mps 751 mmHg 83%

    Day after tomorrow, 27 June, Thursday

    Time Temperature Precipitation Wind Pressure Humidity
    00:00 +18°C° 0 mm 3 mps 751 mmHg 83%
    01:00 +18°C° 0 mm 3 mps 750 mmHg 83%
    02:00 +18°C° 0 mm 4 mps 750 mmHg 83%
    03:00 +18°C° 0 mm 4 mps 749 mmHg 82%
    04:00 +17°C° 0 mm 5 mps 748 mmHg 82%
    05:00 +17°C° 0 mm 5 mps 747 mmHg 82%
    06:00 +20°C° 0 mm 6 mps 747 mmHg 78%
    07:00 +21°C° 0 mm 6 mps 746 mmHg 74%
    08:00 +22°C° 0 mm 7 mps 746 mmHg 71%
    09:00 +23°C° 0.1 mm 7 mps 745 mmHg 69%
    10:00 +24°C° 0.1 mm 8 mps 744 mmHg 66%
    11:00 +26°C° 0.1 mm 8 mps 743 mmHg 64%
    12:00 +26°C° 0.3 mm 8 mps 743 mmHg 67%
    13:00 +27°C° 0.3 mm 7 mps 742 mmHg 69%
    14:00 +27°C° 0.3 mm 7 mps 741 mmHg 71%
    15:00 +26°C° 0.9 mm 7 mps 740 mmHg 75%
    16:00 +24°C° 0.9 mm 7 mps 739 mmHg 80%
    17:00 +24°C° 0.9 mm 7 mps 738 mmHg 84%
    18:00 +23°C° 1 mm 6 mps 738 mmHg 85%
    19:00 +22°C° 1 mm 5 mps 738 mmHg 87%
    20:00 +21°C° 1 mm 5 mps 737 mmHg 88%
    21:00 +20°C° 0.1 mm 5 mps 737 mmHg 90%
    22:00 +19°C° 0.1 mm 5 mps 737 mmHg 92%
    23:00 +17°C° 0.1 mm 6 mps 738 mmHg 94%

    28 June, Friday

    Time Temperature Precipitation Wind Pressure Humidity
    00:00 +16°C° 0 mm 6 mps 738 mmHg 93%
    01:00 +15°C° 0 mm 6 mps 738 mmHg 93%
    02:00 +14°C° 0 mm 5 mps 738 mmHg 92%
    03:00 +13°C° 0 mm 6 mps 738 mmHg 92%
    04:00 +13°C° 0 mm 6 mps 738 mmHg 92%
    05:00 +13°C° 0 mm 6 mps 738 mmHg 92%
    06:00 +13°C° 0 mm 6 mps 738 mmHg 87%
    07:00 +14°C° 0 mm 7 mps 738 mmHg 83%
    08:00 +15°C° 0 mm 8 mps 738 mmHg 79%
    09:00 +15°C° 0 mm 8 mps 738 mmHg 77%
    10:00 +15°C° 0 mm 8 mps 738 mmHg 76%
    11:00 +15°C° 0 mm 8 mps 738 mmHg 74%
    12:00 +15°C° 0.1 mm 8 mps 738 mmHg 75%
    13:00 +15°C° 0.1 mm 8 mps 738 mmHg 76%
    14:00 +14°C° 0.1 mm 7 mps 738 mmHg 76%
    15:00 +15°C° 0.1 mm 7 mps 738 mmHg 76%
    16:00 +15°C° 0.1 mm 7 mps 738 mmHg 76%
    17:00 +15°C° 0.1 mm 6 mps 738 mmHg 76%
    18:00 +15°C° 0.3 mm 6 mps 738 mmHg 79%
    19:00 +15°C° 0.3 mm 6 mps 739 mmHg 83%
    20:00 +14°C° 0.3 mm 6 mps 739 mmHg 86%
    21:00 +14°C° 0.2 mm 6 mps 739 mmHg 88%
    22:00 +13°C° 0.2 mm 6 mps 739 mmHg 90%
    23:00 +11°C° 0.2 mm 6 mps 739 mmHg 92%

    29 June, Saturday

    Time Temperature Precipitation Wind Pressure Humidity
    00:00 +11°C° 0 mm 6 mps 739 mmHg 92%
    01:00 +10°C° 0 mm 6 mps 739 mmHg 93%
    02:00 +10°C° 0 mm 6 mps 739 mmHg 93%
    03:00 +10°C° 0 mm 6 mps 740 mmHg 92%
    04:00 +9°C° 0 mm 6 mps 740 mmHg 91%
    05:00 +9°C° 0 mm 6 mps 740 mmHg 91%
    06:00 +10°C° 0 mm 7 mps 740 mmHg 84%
    07:00 +11°C° 0 mm 7 mps 741 mmHg 77%
    08:00 +12°C° 0 mm 8 mps 741 mmHg 70%
    09:00 +12°C° 0 mm 8 mps 742 mmHg 67%
    10:00 +12°C° 0 mm 7 mps 742 mmHg 65%
    11:00 +14°C° 0 mm 7 mps 742 mmHg 63%
    12:00 +15°C° 0 mm 7 mps 742 mmHg 60%
    13:00 +15°C° 0 mm 7 mps 743 mmHg 57%
    14:00 +16°C° 0 mm 7 mps 743 mmHg 54%
    15:00 +16°C° 0.1 mm 7 mps 743 mmHg 57%
    16:00 +16°C° 0.1 mm 6 mps 743 mmHg 59%
    17:00 +16°C° 0.1 mm 6 mps 743 mmHg 62%
    18:00 +14°C° 0.1 mm 5 mps 743 mmHg 67%
    19:00 +13°C° 0.1 mm 4 mps 743 mmHg 72%
    20:00 +11°C° 0.1 mm 3 mps 743 mmHg 78%
    21:00 +11°C° 0 mm 3 mps 744 mmHg 79%
    22:00 +10°C° 0 mm 3 mps 744 mmHg 81%
    23:00 +9°C° 0 mm 3 mps 744 mmHg 83%

    30 June, Sunday

    Time Temperature Precipitation Wind Pressure Humidity
    00:00 +9°C° 0 mm 3 mps 744 mmHg 83%
    01:00 +8°C° 0 mm 3 mps 744 mmHg 84%
    02:00 +8°C° 0 mm 3 mps 744 mmHg 85%
    03:00 +8°C° 0 mm 3 mps 744 mmHg 84%
    04:00 +8°C° 0 mm 3 mps 744 mmHg 84%
    05:00 +8°C° 0 mm 2 mps 744 mmHg 84%
    06:00 +11°C° 0 mm 3 mps 745 mmHg 77%
    07:00 +13°C° 0 mm 3 mps 745 mmHg 70%
    08:00 +16°C° 0 mm 3 mps 745 mmHg 63%
    09:00 +17°C° 0 mm 3 mps 745 mmHg 58%
    10:00 +19°C° 0 mm 4 mps 745 mmHg 53%
    11:00 +20°C° 0 mm 4 mps 746 mmHg 48%
    12:00 +20°C° 0 mm 4 mps 745 mmHg 51%
    13:00 +20°C° 0 mm 4 mps 745 mmHg 54%
    14:00 +20°C° 0 mm 4 mps 745 mmHg 56%
    15:00 +20°C° 0.1 mm 3 mps 745 mmHg 58%
    16:00 +20°C° 0.1 mm 3 mps 745 mmHg 60%
    17:00 +20°C° 0.1 mm 3 mps 745 mmHg 62%
    18:00 +18°C° 0.1 mm 3 mps 745 mmHg 71%
    19:00 +17°C° 0.1 mm 3 mps 746 mmHg 81%
    20:00 +15°C° 0.1 mm 2 mps 746 mmHg 90%
    21:00 +15°C° 0 mm 2 mps 746 mmHg 91%
    22:00 +14°C° 0 mm 2 mps 746 mmHg 92%
    23:00 +13°C° 0 mm 2 mps 746 mmHg 93%
    Show more